This is the latest recevied weather packets stored in our database for station/object OE3BCB-14. If no packets are shown the sender has not sent any weather packets the latest 10 day(s).
| Time | Temp. | Humidity | Pressure | Rain* | Wind** | Luminosity | Snow |
|---|---|---|---|---|---|---|---|
| 1777698463 | 12.22° C | 54% | 1027.7 hPa | - | - | 80 W/m² | - |
| 1777698160 | 12.22° C | 54% | 1027.6 hPa | - | - | 72 W/m² | - |
| 1777697858 | 11.67° C | 54% | 1027.6 hPa | - | - | 64 W/m² | - |
| 1777697556 | 11.11° C | 54% | 1027.5 hPa | - | - | 57 W/m² | - |
| 1777697253 | 11.11° C | 54% | 1027.5 hPa | - | - | 49 W/m² | - |
| 1777696951 | 10.56° C | 54% | 1027.5 hPa | - | - | 43 W/m² | - |
| 1777696648 | 10° C | 54% | 1027.5 hPa | - | - | 37 W/m² | - |
| 1777696346 | 10° C | 54% | 1027.5 hPa | - | - | 31 W/m² | - |
| 1777696044 | 9.44° C | 54% | 1027.5 hPa | - | - | 23 W/m² | - |
| 1777695741 | 9.44° C | 54% | 1027.5 hPa | - | - | 17 W/m² | - |
| 1777695439 | 8.89° C | 54% | 1027.6 hPa | - | - | 17 W/m² | - |
| 1777695136 | 8.33° C | 54% | 1027.5 hPa | - | - | 15 W/m² | - |
| 1777694834 | 8.33° C | 54% | 1027.5 hPa | - | - | 12 W/m² | - |
| 1777694531 | 7.22° C | 54% | 1027.5 hPa | - | - | 9 W/m² | - |
| 1777694229 | 7.22° C | 54% | 1027.4 hPa | - | - | 5 W/m² | - |
| 1777693927 | 7.22° C | 53% | 1027.4 hPa | - | - | 4 W/m² | - |
| 1777693624 | 7.78° C | 54% | 1027.3 hPa | - | - | 3 W/m² | - |
| 1777693322 | 7.78° C | 53% | 1027.4 hPa | - | - | 2 W/m² | - |
| 1777693020 | 7.78° C | 53% | 1027.3 hPa | - | - | 1 W/m² | - |
| 1777692717 | 7.78° C | 53% | 1027.2 hPa | - | - | 0 W/m² | - |
| 1777692415 | 7.78° C | 53% | 1027.2 hPa | - | - | 0 W/m² | - |
| 1777692112 | 8.33° C | 53% | 1027.3 hPa | - | - | 0 W/m² | - |
| 1777691810 | 8.33° C | 53% | 1027.2 hPa | - | - | 0 W/m² | - |
| 1777691508 | 7.78° C | 53% | 1027.2 hPa | - | - | 0 W/m² | - |
| 1777691205 | 7.78° C | 52% | 1027.2 hPa | - | - | 0 W/m² | - |
* Rain since midnight (hover to see other rain measurements)
** Current wind speed in m/s (hover to see current wind gust speed)